Location: Beneschau
(49.7824°N, 14.6866°E)
Time: 21:51:54
(UTC+00:00)

Daily predictions for brighter satellites

Satellite Brightness Start Highest point End
(mag) Time Altitude Azimuth Time Altitude Azimuth Time Altitude Azimuth
Ariane Rocket 3.4 19:23:02 10° S 19:28:05 69° WSW 19:33:11 10° NNW
MetOp-B 4.3 19:24:01 10° SSE 19:29:18 63° ENE 19:34:37 10° N
Cosmos 405 Rocket 4.3 19:28:04 10° SW 19:31:47 41° WNW 19:35:36 10° N
Cosmos 2360 4.3 19:26:38 10° NNW 19:32:21 86° WSW 19:38:03 10° SSE
Resurs 1-3 4.4 19:28:29 10° S 19:32:46 53° W 19:37:05 10° NNW
Cosmos 2151 4.4 19:30:04 10° SE 19:33:16 21° E 19:36:29 10° NE
Cosmos 2058 2.9 19:31:16 10° S 19:35:25 77° E 19:39:38 10° NNE
ISS -3.4 19:32:12 10° WNW 19:35:34 67° N 19:38:56 10° E
SL-16 R/B 3.6 19:31:28 10° NNW 19:36:15 27° NE 19:41:01 10° E
Cosmos 1437 Rocket 4.2 19:32:45 10° NNW 19:36:17 36° W 19:39:51 10° SSW
Cosmos 1408 4.2 19:32:53 10° SW 19:36:18 38° WNW 19:39:43 10° N
Terra 3.3 19:34:21 10° ESE 19:38:06 24° ENE 19:41:51 10° N
Cosmos 1818 4.2 19:35:33 10° SW 19:40:58 64° NW 19:46:27 10° NE
Nadezhda 4 Rocket 4.3 19:36:04 10° SSE 19:41:58 50° E 19:47:56 10° NNE
Cosmos 1842 Rocket 3.6 19:37:58 10° N 19:42:29 89° ENE 19:46:58 10° S
Gblst 52 Del rocket 4.4 19:37:05 10° WSW 19:42:51 80° SSE 19:49:26 10° ENE
USA 276 2.1 19:40:34 10° W 19:43:45 84° N 19:46:54 10° E
GP-B 4.3 19:41:52 10° NNE 19:45:38 26° E 19:49:20 10° SE
Cosmos 1633 2.9 19:44:30 10° SSE 19:47:58 46° E 19:51:27 10° NNE
Cosmos 1271 Rocket 4.1 19:47:53 10° N 19:51:14 25° ENE 19:54:22 11° ESE
Cosmos 1076 Rocket 3.7 19:48:36 10° S 19:52:49 54° E 19:57:05 10° NNE
NOSS 3-4 (A) 3.7 19:49:19 10° SW 19:55:12 76° NW 20:01:36 10° NE
NOSS 3-4 (C) 3.6 19:49:26 10° SW 19:55:17 77° NW 20:01:42 10° NE
ERS-2 3.1 19:53:59 10° N 19:57:33 51° WNW 20:01:04 10° SW
RESURS DK-1 2.7 19:55:48 10° S 19:59:45 45° ESE 20:03:44 10° NE
Meteor 2-8 Rocket 4.5 19:54:09 10° N 20:00:22 80° E 20:06:30 10° SSE
Cosmos 1697 Rocket 3.5 19:55:05 10° NW 20:00:33 49° WSW 20:05:58 10° S
CZ-4C R/B 4.3 19:56:24 10° W 20:01:16 32° NNW 20:07:06 10° NE
Cosmos 773 Rocket 3.9 19:56:12 10° SSW 20:01:24 74° ESE 20:06:35 10° NNE
Cosmos 332 Rocket 4.4 19:57:37 10° NNW 20:02:19 45° ENE 20:06:27 13° SE
SPOT 3 Rocket 4.0 19:57:30 10° S 20:02:41 63° WSW 20:07:54 10° NNW
ERBS 3.0 19:59:57 10° WNW 20:03:01 41° SW 20:05:29 14° SSE
ATLAS 2AS CENTAUR R/B 3.0 19:56:19 10° SSW 20:04:13 78° SE 20:11:56 10° NE
Resurs 01 Rocket 2.8 20:04:03 10° SSW 20:08:14 41° W 20:12:29 10° NNW
Cosmos 2278 3.7 20:04:42 10° NNW 20:10:24 88° WSW 20:15:27 13° SSE
Cosmos 2082 Rocket 2.2 20:06:14 10° SSW 20:11:49 71° ESE 20:17:29 10° NNE
Cosmos 1933 3.7 20:07:58 10° N 20:11:58 52° ENE 20:15:05 15° SSE
Cosmos 1833 Rocket 3.3 20:08:26 10° SW 20:14:02 63° WNW 20:19:40 10° NNE
ATLAS 5 CENTAUR R/B 4.4 20:11:14 10° NW 20:14:36 18° N 20:18:23 10° NE
JB-3 4.4 20:13:32 10° NNE 20:17:43 79° ESE 20:21:50 10° S
USA 267 3.8 20:11:55 10° ENE 20:17:43 33° SE 20:23:30 10° SSW
USA 245 4.2 20:12:47 10° S 20:18:20 71° WSW 20:22:53 10° NNW
ATLAS 3B R/B 2.9 20:11:49 10° NW 20:18:55 84° SW 20:25:11 15° SE
Cosmos 2333 Rocket 4.3 20:17:25 10° N 20:21:14 18° NE 20:25:03 10° ENE
ERS-1 Rocket 3.0 20:20:49 14° SSE 20:25:05 77° ENE 20:30:08 10° NNW
Cosmos 2360 Rocket 3.6 20:20:42 10° NNW 20:25:32 28° NE 20:30:23 10° ESE
BREEZE-M DEB (TANK) 3.9 20:23:48 10° SW 20:27:52 57° SE 20:43:04 10° ENE
Spot 2 Rocket 3.7 20:23:41 12° S 20:28:29 74° WSW 20:33:38 10° NNW
Gbstr 26 Del rocket 2.7 20:25:49 10° WNW 20:29:34 81° NNE 20:33:11 13° ESE
Cosmos 1606 4.2 20:28:34 10° NNW 20:31:57 32° W 20:35:20 10° SSW
ARIANE 5 R/B 2.8 20:31:34 14° S 20:35:22 72° WSW 20:39:51 10° NNW
Cosmos 2221 4.5 20:32:26 10° NNW 20:36:00 26° W 20:39:33 10° SW
BREEZE-M DEB (TANK) 4.3 20:34:58 10° W 20:38:33 49° SSW 20:46:52 15° SE
Cosmos 158 Rocket 4.0 20:35:43 10° S 20:40:45 61° ESE 20:45:58 10° NNE
COSMOS 2406 4.4 20:36:01 10° SW 20:41:28 46° NW 20:46:59 10° NNE
Cosmos 1812 3.7 20:39:33 10° N 20:43:07 34° ENE 20:44:55 22° ESE
CARTOSAT-1 4.3 20:39:55 13° S 20:43:42 50° W 20:47:55 10° NNW
Cosmos 1538 Rocket 3.9 20:38:51 10° SSW 20:44:05 86° ESE 20:49:18 10° NNE
Meteor 2-3 Rocket 3.7 20:38:55 10° S 20:44:30 77° E 20:50:14 10° NNE
Cosmos 44 Rocket 4.0 20:39:49 10° SW 20:45:00 63° NW 20:50:13 10° NE
Cosmos 1980 Rocket 3.1 20:41:43 10° NW 20:46:57 41° WSW 20:51:34 13° S
Cosmos 2195 Rocket 4.4 20:42:11 10° S 20:48:19 85° E 20:54:28 10° N
Cosmos 304 Rocket 3.8 20:43:45 10° NNW 20:48:34 83° WSW 20:51:39 22° SSE
Cosmos 2098 Rocket 4.1 20:47:05 10° SW 20:49:47 30° WNW 20:52:51 10° N
Cosmos 1782 2.8 20:48:22 10° N 20:52:25 84° ENE 20:54:42 25° SSE
USA 234 3.4 20:46:59 11° ESE 20:53:23 74° NNE 20:59:56 10° WNW
BREEZE-M DEB (TANK) 2.4 20:46:46 10° W 20:54:05 85° S 20:56:07 19° E
Cosmos 2322 Rocket 2.4 20:49:41 10° NNW 20:55:19 62° ENE 20:58:58 22° SE
SPOT 5 3.2 20:55:38 17° S 20:58:44 52° W 21:03:01 10° NNW
Cosmos 1092 Rocket 4.2 20:55:55 10° SSW 21:02:09 75° W 21:08:30 10° N
Cosmos 1624 Rocket 4.5 20:57:04 10° NNW 21:02:09 50° ENE 21:05:14 22° SE
Cosmos 1809 Rocket 4.5 21:02:40 19° S 21:07:07 69° E 21:13:14 10° NNE
Meteor 2-6 Rocket 4.2 21:04:15 10° N 21:09:43 67° ENE 21:12:44 26° SSE
Cosmos 1766 Rocket 3.5 21:07:18 25° S 21:09:49 73° E 21:14:13 10° NNE
Cosmos 2151 4.1 21:06:15 10° SW 21:10:16 42° WNW 21:14:21 10° N
ISS -3.4 21:09:05 10° WNW 21:12:21 47° SSW 21:12:58 41° S
ALOS 2 4.4 21:10:14 15° E 21:12:30 21° ENE 21:15:49 10° NNE
Terra 2.3 21:12:28 21° S 21:15:32 53° W 21:20:14 10° NNW
Cosmos 2237 4.3 21:11:14 10° NNW 21:16:57 69° ENE 21:20:16 26° SE
COSMOS 2428 4.3 21:14:31 10° NNW 21:19:20 27° NE 21:24:05 10° E
Cosmos 1328 Rocket 3.5 21:14:58 10° N 21:19:28 85° WSW 21:21:36 31° S
USA 276 2.0 21:16:48 10° W 21:19:55 65° SSW 21:20:23 55° SSE
Cosmos 2026 Rocket 4.3 21:14:18 11° SSW 21:20:28 68° WNW 21:26:47 10° N
SL-16 R/B 2.3 21:15:15 10° NNW 21:20:56 72° WSW 21:24:03 27° SSE
COBE Rocket 4.3 21:19:40 27° SE 21:21:48 48° ENE 21:26:17 10° N
Cosmos 2219 Rocket 3.6 21:17:13 10° NNW 21:22:11 31° NE 21:26:26 13° ESE
GP-B 4.4 21:18:57 10° NNW 21:23:01 37° W 21:26:48 12° SW
Meteor 1-27 Rocket 4.4 21:18:22 10° N 21:23:43 44° ENE 21:26:39 25° SE
Cosmos 1271 Rocket 4.2 21:23:41 10° NNW 21:27:14 31° W 21:29:30 18° SW
Cosmos 1151 Rocket 3.5 21:23:28 10° NNW 21:27:43 54° W 21:29:57 26° SSW
NOSS 3-1 (C) 4.5 21:22:51 10° NW 21:29:52 58° NE 21:37:20 13° ESE
Cosmos 923 Rocket 4.0 21:26:24 16° SSW 21:30:47 86° WNW 21:36:11 10° NNE
Meteor 2-21 Rocket 4.5 21:29:28 26° S 21:33:04 70° E 21:39:15 10° NNE
H-2A R/B 3.7 21:34:12 10° N 21:38:23 68° WNW 21:40:45 25° SSW
Meteor 1-10 Rocket 4.1 21:35:33 10° NNW 21:41:11 89° E 21:43:52 32° SSE
Meteor 2-21 4.5 21:37:08 22° SSW 21:41:24 82° W 21:47:37 10° N
Cosmos 2056 Rocket 3.5 21:35:58 10° NNW 21:41:24 85° WSW 21:43:49 34° SSE
Cosmos 2315 Rocket 4.3 21:36:31 10° N 21:42:43 55° ENE 21:45:57 28° SE
Okean 3 Rocket 4.1 21:41:09 22° SSW 21:43:55 55° WNW 21:48:22 10° N
Cosmos 1174 4.0 21:43:26 10° NNW 21:46:21 39° NE 21:46:54 35° ENE
IRIDIUM 114 4.4 21:46:57 10° N 21:52:10 65° E 21:54:15 36° SSE
Cosmos 1500 Rocket 3.7 21:53:39 43° SSE 21:54:51 61° E 21:59:14 10° NNE
ATLAS 2AS CENTAUR R/B 4.2 21:48:27 10° W 21:55:52 43° NNW 22:03:02 10° NE
Cosmos 2082 Rocket 4.3 21:51:43 10° W 21:56:27 27° NW 22:01:15 10° NNE
COSMOS 2455 3.8 21:55:35 26° SE 21:56:41 28° ESE 22:01:40 10° NE
ATLAS 5 CENTAUR R/B 3.4 21:55:48 10° NW 22:00:37 37° NE 22:06:16 10° E
USA 267 3.2 21:54:40 10° ENE 22:01:15 89° SE 22:07:50 10° WSW
IRIDIUM 103 4.3 21:56:06 10° N 22:01:21 77° E 22:03:23 38° SSE
NOSS 3-1 (A) 4.5 21:55:07 10° NW 22:02:08 57° NE 22:10:14 11° ESE
Cosmos 1371 Rocket 4.4 21:57:08 10° NNW 22:02:22 54° WSW 22:04:31 33° SSW
SL-27 R/B 2.3 22:05:12 68° SSE 22:05:32 76° ESE 22:09:09 10° NNE
CZ-3B R/B 2.5 21:55:29 10° WNW 22:05:36 85° NNE 22:07:15 33° ESE
Cosmos 2112 Rocket 4.2 22:02:04 21° SW 22:05:40 69° WNW 22:10:58 10° NNE
Cosmos 1655 Rocket 4.0 22:02:09 28° SSW 22:05:48 84° W 22:12:14 10° N
Cosmos 2266 Rocket 3.9 22:03:04 31° S 22:06:15 89° E 22:12:30 10° N
Cosmos 2333 Rocket 2.4 22:01:00 10° NNW 22:06:39 66° ENE 22:09:26 30° SE
Cosmos 1680 Rocket 4.0 22:03:27 17° SW 22:07:32 59° WNW 22:12:45 10° NNE
ATLAS 3B R/B 4.3 22:03:34 10° WNW 22:08:47 22° WSW 22:12:25 15° SW
Cosmos 1833 4.3 22:06:27 35° S 22:08:48 62° ESE 22:14:30 10° NE
Cosmos 2360 Rocket 2.3 22:04:25 10° NNW 22:10:01 66° WSW 22:12:12 37° S
COSMOS 2487 4.0 22:11:09 23° E 22:11:09 23° E 22:13:14 10° NE
Cosmos 1743 Rocket 3.5 22:11:53 45° S 22:13:13 89° E 22:17:42 10° N
Cosmos 2228 Rocket 3.0 22:09:14 10° N 22:13:40 83° ENE 22:14:49 49° SSE
Cosmos 1408 Rocket 4.2 22:13:14 28° SW 22:15:13 49° WNW 22:19:27 10° N
Gbstr 26 Del rocket 3.8 22:12:36 10° W 22:15:40 32° SW 22:15:40 32° SW
NOSS 2-1 (C) 2.8 22:16:43 70° E 22:16:43 70° E 22:19:54 10° NE
Okean 1 4.4 22:13:55 10° N 22:17:38 34° ENE 22:18:33 30° ESE
IRIDIUM 106 4.3 22:14:24 10° N 22:19:39 77° W 22:21:38 39° S
Cosmos 292 Rocket 3.8 22:15:39 10° NNW 22:20:22 65° WSW 22:21:42 44° S
Cosmos 2322 3.7 22:15:23 10° NNW 22:21:09 79° ENE 22:23:41 35° SE
Cosmos 972 Rocket 4.2 22:19:32 40° SSE 22:21:14 57° ESE 22:26:14 10° NNE
NOSS 2-1 (D) 2.7 22:24:09 88° SSE 22:24:10 88° ESE 22:27:37 10° NE
Cosmos 1633 Rocket 4.1 22:28:55 29° ESE 22:29:37 31° E 22:33:28 10° NNE
Cosmos 1666 Rocket 4.3 22:29:15 34° ESE 22:29:59 37° E 22:34:05 10° NNE
Cosmos 546 4.5 22:28:39 23° WSW 22:31:00 79° SSE 22:34:56 10° ENE
Sich 1 3.1 22:32:08 52° SSE 22:32:59 66° E 22:37:19 10° NNE
Meteor 1-19 Rocket 4.5 22:27:19 10° N 22:32:59 60° ENE 22:35:17 34° SE
Spot 4 4.5 22:32:44 35° SW 22:34:12 45° W 22:38:50 10° NNW
Cosmos 2297 Rocket 4.1 22:35:02 13° ESE 22:36:13 14° E 22:38:58 10° ENE
USA 234 3.6 22:34:19 34° S 22:36:38 47° SW 22:42:57 10° WNW
Cosmos 2237 Rocket 3.5 22:32:32 10° NNW 22:37:44 35° NE 22:42:20 13° ESE
Cosmos 2322 Rocket 3.6 22:34:25 10° NW 22:38:56 25° WSW 22:40:46 21° SW
SAR-Lupe-2 4.4 22:36:43 10° NNE 22:39:58 36° E 22:39:58 36° E
Cosmos 2227 Rocket 4.3 22:45:51 12° ESE 22:47:13 13° E 22:49:32 10° ENE
Cosmos 1048 Rocket 4.1 22:46:36 45° SSE 22:47:55 60° ESE 22:52:57 10° NNE
ALOS 2 3.0 22:47:37 44° SW 22:48:31 51° W 22:52:49 10° NNW
Cosmos 1862 Rocket 4.0 22:46:38 10° N 22:50:56 52° ENE 22:52:01 41° ESE
Nadezhda 2 Rocket 4.5 22:48:24 37° S 22:51:05 82° E 22:57:30 10° N
Cosmos 494 Rocket 4.2 22:53:24 43° SSE 22:54:35 53° ESE 22:59:34 10° NNE
Meteor 2-4 Rocket 4.2 22:52:10 10° N 22:58:03 57° ENE 23:00:49 31° SE
Thor Agena Rocket 3.7 22:54:47 10° NNE 22:59:46 55° ESE 23:01:06 42° SSE
Cosmos 2084 3.7 22:58:26 32° WSW 23:00:08 62° NW 23:04:20 10° NE
Cosmos 1707 Rocket 3.5 22:56:44 10° NNW 23:01:05 72° W 23:01:53 56° SSW
SL-16 R/B 4.3 22:57:10 10° NNW 23:01:43 24° NE 23:06:14 10° E
Cosmos 1500 3.3 23:01:52 57° ESE 23:02:07 58° E 23:05:55 10° NNE
SL-16 R/B 4.3 23:01:45 10° WNW 23:04:00 12° W 23:05:54 11° WSW
COSMOS 2428 2.7 22:58:28 10° NNW 23:04:11 73° WSW 23:06:09 42° S
Cosmos 2219 Rocket 2.3 23:00:59 10° NW 23:06:30 59° WSW 23:08:08 42° SSW
Cosmos 1602 3.8 23:08:57 57° WSW 23:09:26 65° WNW 23:13:18 10° N
Cosmos 1244 Rocket 4.4 23:07:25 37° SSW 23:10:01 81° W 23:16:15 10° N
Cosmos 1452 Rocket 4.1 23:09:14 10° NW 23:14:09 42° WSW 23:15:22 36° SW
MTI 4.2 23:13:20 10° N 23:15:58 53° NW 23:15:58 53° NW
NOSS 3-1 (C) 4.3 23:13:44 10° NW 23:20:57 52° WSW 23:24:41 32° S
Geosat 4.1 23:27:37 45° SSW 23:28:50 57° WSW 23:33:49 10° NW
Lacrosse 5 3.5 23:29:47 19° ESE 23:29:47 19° ESE 23:33:08 10° E
USA 229 DEB 3.9 23:25:46 10° NW 23:32:57 63° SW 23:36:51 31° SSE
USA 229 3.9 23:25:52 10° NW 23:33:04 63° SW 23:36:59 30° SSE
Cosmos 2242 Rocket 4.1 23:28:53 10° N 23:33:12 51° ENE 23:34:41 35° SE
Cosmos 2219 4.3 23:33:45 27° SE 23:35:35 33° ESE 23:40:39 10° NE
Cosmos 1340 Rocket 3.2 23:39:00 44° ESE 23:39:32 47° E 23:43:19 10° NNE
CZ-4C R/B 4.2 23:35:53 10° NW 23:42:07 39° NNE 23:49:28 10° E
COSMOS 2455 3.1 23:38:42 26° SW 23:42:11 66° NW 23:48:13 10° NNE
PSLV R/B 3.8 23:37:25 10° N 23:42:13 74° WNW 23:43:41 44° SW
USA 267 4.0 23:37:44 10° ENE 23:44:03 53° NNW 23:50:21 10° W
COSMOS 2487 4.0 23:44:23 23° W 23:45:09 26° WNW 23:48:04 10° N
ATLAS 5 CENTAUR R/B 2.3 23:40:09 10° NW 23:45:37 67° SW 23:48:42 31° SSE
Meteor 2-17 Rocket 4.4 23:43:45 37° S 23:46:19 80° E 23:52:23 10° NNE
Cosmos 2333 Rocket 3.5 23:46:03 10° NW 23:50:27 24° WSW 23:51:25 23° WSW
Resurs 1-4 Rocket 3.5 23:47:02 10° NE 23:51:37 29° E 23:54:09 20° SE
Cosmos 1378 3.1 23:48:42 10° N 23:52:25 72° E 23:52:58 59° SE
ARGOS Delta rocket 4.1 23:48:06 10° NNE 23:52:49 55° E 23:54:15 39° SSE
Cosmos 2360 Rocket 4.3 23:51:33 10° W 23:52:53 11° W 23:53:56 10° WSW
Cosmos 1666 2.7 23:54:41 57° SW 23:55:13 67° W 23:59:05 10° N
